Location: Howard City Library
(37.4684°N, 96.2639°W)
Time: 08:01:10
(UTC+00:00)

Cosmos 2285 Rocket - Pass Details

Date: 18 February 2020
Orbit: 970 x 999 km, 74.0° (Epoch: 30 March)

Event Time Altitude Azimuth Distance (km) Brightness Sun altitude
Rises 01:58:55 0° 347° (NNW) 3,690 7.2 -23.0°
Reaches altitude 10° 02:01:35 10° 354° (N) 2,743 6.4 -23.5°
Enters shadow 02:07:09 45° 53° (NE) 1,314 4.3 -24.6°
